Location: Ottawa
(45.4167°N, 75.7000°W)
Time: 11:52:04
(UTC-05:00)

Envisat - Pass Details

Date: 14 October 2017
Orbit: 764 x 766 km, 98.2° (Epoch: 18 December)

Event Time Altitude Azimuth Distance (km) Brightness Sun altitude
Exits shadow 22:00:15 21° 277° (W) 1,692 5.2 -38.4°
Drops below altitude 10° 22:03:32 10° 317° (NW) 2,313 6.1 -38.9°
Sets 22:06:25 0° 333° (NNW) 3,245 6.9 -39.3°
